{"data":{"norad_id":58776,"intl_designator":"2024-011M","name":"STARLINK-31117","alt_names":[],"object_type":"PAYLOAD","status":"ACTIVE","operator":null,"country":"US","launch_date":"2024-01-14","launch_site_code":"AFWTR","launch_vehicle":null,"mission":null,"orbit_class":"UNKNOWN","rcs_meters":null,"size_class":null,"mass_kg":null,"dimensions":null,"purposes":["comms"],"wikipedia_slug":null,"has_3d_model":false,"image_url":null,"decayed_at":null,"tle_current":{"epoch":"2026-09-20T11:42:02.909952Z","epoch_age_seconds":153687,"freshness":"FRESH","line1":"1 58776U 24011M   26263.48753368  .00000420  00000+0  23582-4 0  9993","line2":"2 58776  53.1601 187.5061 0001540  56.2464 303.8685 15.34390868150114","mean_motion":15.34390868,"eccentricity":0.000154,"inclination_deg":53.1601,"raan_deg":187.5061,"arg_perigee_deg":56.2464,"mean_anomaly_deg":303.8685,"bstar":2.3582e-5,"rev_number":15011,"period_min":93.848316620716,"perigee_km":461.67688899329,"apogee_km":463.78387614712,"semimajor_km":6840.8673825702,"source":"CELESTRAK","updated_at":"2026-09-21T09:00:33.958679Z"}}}